カタログに戻る

SOLRAD 11A/B AKM

運用中MEO
NORAD 8753·ROCKET BODY·🇺🇸 United States

打ち上げ Mar 15, 1976 から Cape Canaveral Space Force Station

Loading…

次のパス (今後24時間)

TLE

最新Source: Space-Track

元期: Sep 17, 2026, 17:13 UTC

1 08753U 76023H   26260.71790532 -.00000984  00000-0  00000-0 0  9993
2 08753  11.6722 357.6434 0307395  89.7031 356.4628  0.18717764  5584

AllMySatでSOLRAD 11A/B AKMをリアルタイム追跡

Download on the App Store